Find Starlink 1554

NORAD ID: 46055 Int'l Des: 2020-055 Owner: SPXS Country: US Constellation: starlink operational
LEOCIRCULAR

当前视图

正在加载3D地球...

About Starlink 1554

Starlink 1554 (NORAD 46055) is a starlink constellation satellite (v1.0) launched Aug 7, 2020 by SPXS of US. It operates in LEO, CIRCULAR orbit with a mass of 260.00 kg.

即将过境

Passes for default location (London). Set your location on the main map for personalized predictions.

高度历史

Loading altitude history...

两行轨道根数

1 46055U 20055AE 26254.48496289 .00000470 00000-0 26924-4 0 9999
2 46055 53.1612 329.3986 0001267 68.8397 291.2740 15.31693183337544
Epoch: Sep 11, 2026 • Age: 36 hours

当前状态

高度 480.1 km
远地点 / 近地点 N/A
速度 7.63 km/s
星下点 -29.69°S, 47.06°W
发射日期 Aug 7, 2020
运行时间 6 years
类型 internet

技术详情

分类 Payload
质量 260.00 kg
干质量 248.00 kg
总质量 260.00 kg
长度 0.20 m
直径 2.80 m
跨度 9.00 m
形状 Box + pan
制造商 SPXS
平台类型 Starlink
阶段状态 In Orbit
所有者/国家 SPXS/US

Most Searched